time_stamp(utc),avg(mph),gust(mph),direction(deg),12m_air_temp(f),sonic_u(cm/s),sonic_v(cm/s),sonic_w(cm/s),pressure,2m_air_temp(f),pyranometer(W/m^2)
"2021-03-07 00:02:39+00",10.5,12.5,,36.1,-310,342,27,1021.53,35.6,0
"2021-03-07 00:07:39+00",10.6,11.6,,35.9,-318,341,20,1021.52,35.4,0
"2021-03-07 00:12:39+00",9.4,10.4,,35.9,-288,302,15,1021.6,35.3,0
"2021-03-07 00:17:39+00",10.1,12.1,,35.8,-290,344,17,1021.68,35.2,0
"2021-03-07 00:22:39+00",10.1,11.1,,35.8,-279,360,6,1021.78,35.2,0
"2021-03-07 00:27:39+00",10.0,12.0,,35.7,-268,319,26,1021.88,35.1,0
"2021-03-07 00:32:39+00",10.5,11.5,,35.7,-320,342,19,1021.95,35.1,0
"2021-03-07 00:37:39+00",11.2,13.2,,35.8,-333,364,31,1021.99,35,0
"2021-03-07 00:42:39+00",10.9,12.9,,35.7,-358,321,30,1021.98,34.9,0
"2021-03-07 00:47:39+00",10.7,12.7,,35.6,-343,320,28,1021.98,34.8,0
"2021-03-07 00:52:39+00",10.5,11.5,,35.6,-341,329,27,1022.04,34.8,0
"2021-03-07 00:57:39+00",8.9,9.9,,35.5,-304,246,27,1022.18,34.6,0
"2021-03-07 01:02:39+00",8.9,9.9,,35.5,-320,241,15,1022.23,34.5,0
"2021-03-07 01:07:39+00",8.2,9.2,,35.4,-289,235,27,1022.29,34.3,0
"2021-03-07 01:12:39+00",7.0,8.0,,35.2,-235,212,20,1022.33,34.1,0
"2021-03-07 01:17:39+00",6.6,6.6,,35,-213,196,11,1022.36,33.8,0
"2021-03-07 01:22:39+00",7.3,9.3,,34.9,-202,240,15,1022.32,33.5,0
"2021-03-07 01:27:39+00",7.5,8.5,,35.1,-234,234,16,1022.43,33.5,0
"2021-03-07 01:32:39+00",6.4,7.4,,34.9,-195,199,9,1022.52,33.5,0
"2021-03-07 01:37:39+00",6.7,7.7,,34.9,-187,217,14,1022.56,33.4,0
"2021-03-07 01:42:39+00",6.5,7.5,,34.9,-203,200,9,1022.63,33.2,0
"2021-03-07 01:47:39+00",6.1,7.1,,34.7,-191,187,6,1022.64,33,0
"2021-03-07 01:52:39+00",6.0,7.0,,34.8,-204,169,10,1022.72,32.8,0
"2021-03-07 01:57:39+00",6.2,7.2,,34.7,-207,185,9,1022.81,32.6,0
"2021-03-07 02:02:39+00",5.2,5.2,,34.8,-160,157,11,1022.85,32.5,0
"2021-03-07 02:07:39+00",5.8,5.8,,34.7,-167,185,5,1022.89,32.3,0
"2021-03-07 02:12:39+00",6.4,6.4,,34.7,-170,220,11,1022.93,32.1,0
"2021-03-07 02:17:39+00",6.7,6.7,,34.7,-168,237,10,1022.92,31.9,0
"2021-03-07 02:22:39+00",6.6,6.6,,34.6,-181,226,9,1022.95,31.7,0
"2021-03-07 02:27:39+00",6.7,6.7,,34.4,-141,250,8,1023.09,31.4,0
"2021-03-07 02:32:39+00",6.9,6.9,,34.4,-149,258,7,1023.11,31.2,0
"2021-03-07 02:37:39+00",7.1,7.1,,34.4,-162,267,6,1023.12,31.1,0
"2021-03-07 02:42:39+00",7.1,7.1,,34.3,-140,273,9,1023.21,31,0
"2021-03-07 02:47:39+00",7.5,7.5,,34.2,-86,317,1,1023.22,30.8,0
"2021-03-07 02:52:39+00",8.7,10.7,,33.8,23,378,7,1023.33,30.4,0
"2021-03-07 02:57:39+00",9.7,10.7,,33.1,16,420,5,1023.41,30.3,0
"2021-03-07 03:02:39+00",10.1,11.1,,32.8,40,441,0,1023.59,30.1,0
"2021-03-07 03:07:39+00",7.4,8.4,,32.5,55,302,-1,1023.7,30.1,0
"2021-03-07 03:12:39+00",9.6,11.6,,32.4,157,387,1,1023.74,30.5,0
"2021-03-07 03:17:39+00",10.3,11.3,,32.5,137,419,-3,1023.69,31,0
"2021-03-07 03:22:39+00",7.7,9.7,,32.3,158,279,-3,1023.76,31.1,0
"2021-03-07 03:27:39+00",8.6,9.6,,32.1,175,321,-2,1023.83,30.9,0
"2021-03-07 03:32:39+00",8.9,9.9,,31.9,151,360,-4,1023.91,30.7,0
"2021-03-07 03:37:39+00",7.3,8.3,,31.7,156,264,-2,1023.91,30.5,0
"2021-03-07 03:42:39+00",7.4,8.4,,31.6,138,285,0,1023.9,30.4,0
"2021-03-07 03:47:39+00",8.6,10.6,,31.5,150,340,6,1023.99,30.4,0
"2021-03-07 03:52:39+00",6.9,8.9,,31.5,159,237,5,1024,30.5,0
"2021-03-07 03:57:39+00",7.1,8.1,,31.6,150,262,-2,1024.13,30.5,0
"2021-03-07 04:02:39+00",6.3,7.3,,31.6,133,228,7,1024.06,30.6,0
"2021-03-07 04:07:39+00",7.7,8.7,,31.5,161,277,-1,1024.14,30.7,0
"2021-03-07 04:12:39+00",7.5,8.5,,31.6,185,249,-4,1024.14,30.7,0
"2021-03-07 04:17:39+00",8.0,9.0,,31.6,200,270,11,1024.19,30.8,0
"2021-03-07 04:22:39+00",7.6,8.6,,31.6,165,274,5,1024.14,30.8,0
"2021-03-07 04:27:39+00",7.1,8.1,,31.7,188,228,9,1024.15,30.8,0
"2021-03-07 04:32:39+00",6.0,7.0,,31.6,148,196,9,1024.16,30.7,0
"2021-03-07 04:37:39+00",5.7,6.7,,31.4,160,178,11,1024.08,30.5,0
"2021-03-07 04:42:39+00",6.2,6.2,,31.3,192,183,13,1024.07,30.3,0
"2021-03-07 04:47:39+00",6.1,6.1,,31.3,177,185,10,1024.04,30,0
"2021-03-07 04:52:39+00",6.6,6.6,,31.4,221,180,18,1024.06,29.7,0
"2021-03-07 04:57:39+00",7.4,8.4,,31.4,206,228,7,1024.13,29.5,0
"2021-03-07 05:02:39+00",6.1,6.1,,31.1,197,170,14,1024.19,29.4,0
"2021-03-07 05:07:39+00",4.7,5.7,,31,161,126,10,1024.29,29.3,0
"2021-03-07 05:12:39+00",4.5,5.5,,31,112,141,-2,1024.4,29.4,0
"2021-03-07 05:17:39+00",4.1,5.1,,31.3,119,119,13,1024.4,29.4,0
"2021-03-07 05:22:39+00",3.2,4.2,,31.3,111,70,6,1024.35,29.5,0
"2021-03-07 05:27:39+00",2.4,2.4,,31.4,35,85,7,1024.33,29.5,0
"2021-03-07 05:32:39+00",4.4,5.4,,31.5,153,91,-6,1024.37,29.6,0
"2021-03-07 05:37:39+00",4.6,5.6,,31.5,164,113,6,1024.44,29.7,0
"2021-03-07 05:42:39+00",6.6,7.6,,31.6,216,189,8,1024.39,29.8,0
"2021-03-07 05:47:39+00",7.6,8.6,,31.7,272,196,21,1024.38,30,0
"2021-03-07 05:52:39+00",8.2,9.2,,31.7,213,260,2,1024.55,30.4,0
"2021-03-07 05:57:39+00",7.6,8.6,,31.7,193,247,1,1024.66,30.6,0
"2021-03-07 06:02:39+00",6.8,7.8,,31.8,215,203,18,1024.6,30.7,0
"2021-03-07 06:07:39+00",7.0,8.0,,31.8,197,216,16,1024.6,30.9,0
"2021-03-07 06:12:39+00",7.6,8.6,,31.8,185,258,-1,1024.63,31,0
"2021-03-07 06:17:39+00",6.6,7.6,,31.7,150,233,-3,1024.72,30.9,0
"2021-03-07 06:22:39+00",8.1,9.1,,31.8,149,321,-12,1024.69,30.9,0
"2021-03-07 06:27:39+00",7.3,9.3,,31.7,122,289,1,1024.75,30.9,0
"2021-03-07 06:32:39+00",8.5,9.5,,31.7,182,314,-1,1024.7,30.8,0
"2021-03-07 06:37:39+00",7.5,8.5,,31.7,153,283,1,1024.71,30.8,0
"2021-03-07 06:42:39+00",6.6,7.6,,31.7,218,193,11,1024.62,30.8,0
"2021-03-07 06:47:39+00",8.9,9.9,,31.7,176,341,-9,1024.67,30.9,0
"2021-03-07 06:52:39+00",6.5,7.5,,31.6,148,222,-2,1024.62,30.9,0
"2021-03-07 06:57:39+00",7.4,8.4,,31.6,159,268,0,1024.64,30.9,0
"2021-03-07 07:02:39+00",5.2,6.2,,31.5,72,202,0,1024.64,30.8,0
"2021-03-07 07:07:39+00",4.7,5.7,,31.3,20,201,0,1024.75,30.7,0
"2021-03-07 07:12:39+00",5.0,7.0,,31.3,18,211,6,1024.68,30.6,0
"2021-03-07 07:17:39+00",5.2,5.2,,31.2,49,215,3,1024.67,30.5,0
"2021-03-07 07:22:39+00",5.8,5.8,,31.2,80,227,-1,1024.72,30.4,0
"2021-03-07 07:27:39+00",7.6,7.6,,31.3,129,305,-3,1024.79,30.4,0
"2021-03-07 07:32:39+00",7.5,7.5,,31.2,146,280,6,1024.72,30.4,0
"2021-03-07 07:37:39+00",8.7,9.7,,31.2,185,328,4,1024.76,30.4,0
"2021-03-07 07:42:39+00",7.4,8.4,,31.2,143,283,-1,1024.73,30.5,0
"2021-03-07 07:47:39+00",7.1,8.1,,31.1,115,283,-1,1024.76,30.5,0
"2021-03-07 07:52:39+00",6.9,7.9,,31.1,148,247,-2,1024.73,30.5,0
"2021-03-07 07:57:39+00",7.0,8.0,,31.1,105,274,1,1024.77,30.4,0
"2021-03-07 08:02:39+00",6.2,7.2,,31,73,250,-1,1024.75,30.4,0
"2021-03-07 08:07:39+00",6.0,7.0,,31,99,243,0,1024.73,30.4,0
"2021-03-07 08:12:39+00",5.9,7.9,,31.1,60,241,-2,1024.68,30.4,0
"2021-03-07 08:17:39+00",5.9,6.9,,31,56,241,-5,1024.73,30.3,0
"2021-03-07 08:22:39+00",6.1,8.1,,31.1,71,234,7,1024.7,30.3,0
"2021-03-07 08:27:39+00",5.6,6.6,,31,28,235,-2,1024.79,30.3,0
"2021-03-07 08:32:39+00",6.4,7.4,,31,-11,271,7,1024.77,30.3,0
"2021-03-07 08:37:39+00",7.7,9.7,,31.1,6,337,7,1024.71,30.2,0
"2021-03-07 08:42:39+00",7.9,8.9,,31,11,333,9,1024.78,30.2,0
"2021-03-07 08:47:39+00",7.9,8.9,,30.9,-18,345,8,1024.81,30.1,0
"2021-03-07 08:52:39+00",8.5,9.5,,30.9,-23,370,5,1024.89,30,0
"2021-03-07 08:57:39+00",8.1,9.1,,30.9,-21,356,6,1024.92,30,0
"2021-03-07 09:02:39+00",8.5,9.5,,30.9,-18,374,9,1024.89,29.9,0
"2021-03-07 09:07:39+00",7.7,8.7,,30.8,-5,336,9,1025.04,29.8,0
"2021-03-07 09:12:39+00",8.1,9.1,,30.8,-16,357,11,1025.07,29.6,0
"2021-03-07 09:17:39+00",7.6,8.6,,30.7,-5,329,8,1025.2,29.3,0
"2021-03-07 09:22:39+00",7.7,8.7,,30.7,-13,338,8,1025.24,29,0
"2021-03-07 09:27:39+00",7.2,8.2,,30.6,-15,308,6,1025.35,28.7,0
"2021-03-07 09:32:39+00",7.5,7.5,,30.6,-2,319,6,1025.43,28.5,0
"2021-03-07 09:37:39+00",7.6,8.6,,30.6,-18,332,8,1025.57,28.2,0
"2021-03-07 09:42:39+00",6.7,7.7,,30.5,-34,290,7,1025.58,28,0
"2021-03-07 09:47:39+00",5.9,6.9,,30.5,-52,250,-1,1025.64,27.8,0
"2021-03-07 09:52:39+00",5.5,6.5,,30.4,-50,226,4,1025.78,27.6,0
"2021-03-07 09:57:39+00",5.8,5.8,,30.3,-54,244,1,1025.81,27.5,0
"2021-03-07 10:02:39+00",5.3,6.3,,30.2,-73,213,1,1025.87,27.3,0
"2021-03-07 10:07:39+00",5.2,5.2,,30.2,-51,214,1,1026.02,27.2,0
"2021-03-07 10:12:39+00",5.4,5.4,,30.2,-69,223,0,1026.09,27,0
"2021-03-07 10:17:39+00",5.1,6.1,,30.2,-80,204,5,1026.09,26.8,0
"2021-03-07 10:22:39+00",5.0,5.0,,30.1,-99,188,4,1026.13,26.8,0
"2021-03-07 10:27:39+00",5.4,5.4,,30.2,-109,202,6,1026.26,26.8,0
"2021-03-07 10:32:39+00",5.8,5.8,,30.3,-122,218,10,1026.37,27,0
"2021-03-07 10:37:39+00",6.0,6.0,,30.5,-138,218,12,1026.35,27.1,0
"2021-03-07 10:42:39+00",6.5,7.5,,30.5,-144,243,14,1026.4,27.2,0
"2021-03-07 10:47:39+00",6.5,7.5,,30.5,-155,236,13,1026.45,27.4,0
"2021-03-07 10:52:39+00",6.1,6.1,,30.5,-144,219,12,1026.57,27.5,0
"2021-03-07 10:57:39+00",5.9,5.9,,30.5,-131,217,9,1026.59,27.5,0
"2021-03-07 11:02:39+00",5.7,5.7,,30.6,-141,203,11,1026.58,27.6,0
"2021-03-07 11:07:39+00",5.8,5.8,,30.6,-146,203,11,1026.64,27.7,0
"2021-03-07 11:12:39+00",5.9,6.9,,30.6,-139,216,11,1026.74,27.7,0
"2021-03-07 11:17:39+00",5.8,5.8,,30.7,-142,205,10,1026.8,27.7,0
"2021-03-07 11:22:39+00",6.3,6.3,,30.7,-148,229,12,1026.75,27.7,0
"2021-03-07 11:27:39+00",6.6,6.6,,30.7,-155,236,12,1026.89,27.7,0
"2021-03-07 11:32:39+00",6.1,6.1,,30.6,-154,215,12,1027.04,27.7,0
"2021-03-07 11:37:39+00",6.0,6.0,,30.6,-147,209,10,1027.1,27.6,0
"2021-03-07 11:42:39+00",5.9,5.9,,30.6,-151,205,12,1027.18,27.6,0
"2021-03-07 11:47:39+00",6.0,6.0,,30.5,-130,222,6,1027.24,27.6,0
"2021-03-07 11:52:39+00",6.2,6.2,,30.5,-140,229,14,1027.23,27.7,0
"2021-03-07 11:57:39+00",6.4,7.4,,30.2,-116,251,10,1027.16,28,0
"2021-03-07 12:02:39+00",8.4,10.4,,30.2,-105,352,-1,1027.14,28.4,0
"2021-03-07 12:07:39+00",6.1,6.1,,30.1,-130,225,11,1027.28,29,0
"2021-03-07 12:12:39+00",7.5,8.5,,30,-99,311,21,1027.35,29.8,0
"2021-03-07 12:17:39+00",9.8,10.8,,29.9,-49,432,2,1027.41,30.3,0
"2021-03-07 12:22:39+00",10.5,12.5,,29.9,34,462,-1,1027.43,30.8,0
"2021-03-07 12:27:39+00",11.8,13.8,,29.7,-38,511,4,1027.34,31.1,0
"2021-03-07 12:32:39+00",11.0,13.0,,29.8,-43,480,3,1027.37,31.5,0
"2021-03-07 12:37:39+00",10.2,12.2,,29.7,-55,451,17,1027.32,31.7,0
"2021-03-07 12:42:39+00",12.2,14.2,,29.8,-56,529,6,1027.41,32.1,0
"2021-03-07 12:47:39+00",11.2,13.2,,30,37,481,3,1027.36,32.3,0
"2021-03-07 12:52:39+00",10.9,12.9,,30.2,54,457,-6,1027.33,32.3,0
"2021-03-07 12:57:39+00",12.9,15.9,,30.3,92,558,-2,1027.46,32.3,0
"2021-03-07 13:02:39+00",13.4,15.4,,30.3,10,596,1,1027.48,32.5,0
"2021-03-07 13:07:39+00",14.5,17.5,,30.3,28,654,5,1027.55,32.6,0
"2021-03-07 13:12:39+00",12.7,15.7,,30.3,64,532,10,1027.55,32.7,0
"2021-03-07 13:17:39+00",13.3,15.3,,30.5,79,573,13,1027.52,32.8,0
"2021-03-07 13:22:39+00",13.0,15.0,,30.8,174,544,3,1027.48,33.1,0
"2021-03-07 13:27:39+00",13.3,15.3,,30.6,172,539,-27,1027.44,33.2,0
"2021-03-07 13:32:39+00",12.8,14.8,,30.8,53,549,-12,1027.36,33.4,0
"2021-03-07 13:37:39+00",12.5,14.5,,31,170,500,13,1027.46,33.8,0
"2021-03-07 13:42:39+00",12.8,14.8,,31.1,100,550,1,1027.43,34.1,0
"2021-03-07 13:47:39+00",11.7,14.7,,31.3,199,458,3,1027.43,34.1,0
"2021-03-07 13:52:39+00",12.1,15.1,,31.4,219,491,3,1027.36,34.4,0
"2021-03-07 13:57:39+00",11.7,14.7,,31.3,-28,507,38,1027.43,34.7,0
"2021-03-07 14:02:39+00",9.8,10.8,,31.5,-66,417,12,1027.42,35.1,0
"2021-03-07 14:07:39+00",10.6,12.6,,31.9,-91,456,-6,1027.47,35.5,0
"2021-03-07 14:12:39+00",10.9,11.9,,31.6,49,467,-33,1027.47,35.4,0
"2021-03-07 14:17:39+00",11.6,13.6,,32.2,69,510,-5,1027.31,35.8,0
"2021-03-07 14:22:39+00",10.4,12.4,,32.2,170,408,4,1027.36,35.9,0
"2021-03-07 14:27:39+00",7.6,10.6,,32.6,21,318,30,1027.34,36.5,0
"2021-03-07 14:32:39+00",5.7,6.7,,32.5,-184,148,48,1027.31,37,0
"2021-03-07 14:37:39+00",9.2,11.2,,33,-35,418,13,1027.26,37.4,0
"2021-03-07 14:42:39+00",9.4,11.4,,33.1,73,391,7,1027.25,37.8,0
"2021-03-07 14:47:39+00",7.1,10.1,,33.2,47,289,-24,1027.18,37.9,0
"2021-03-07 14:52:39+00",10.1,13.1,,33.6,-159,390,50,1027.15,38.3,0
"2021-03-07 14:57:39+00",6.0,7.0,,33.7,46,251,-6,1027.21,38.2,0
"2021-03-07 15:02:39+00",8.4,9.4,,33.7,-292,222,5,1027.15,38.2,0
"2021-03-07 15:07:39+00",10.4,16.4,,34.2,-376,281,53,1027.08,37.9,0
"2021-03-07 15:12:39+00",11.0,14.0,,33.8,-375,317,16,1027.14,37.6,0
"2021-03-07 15:17:39+00",15.3,17.3,,34.2,-432,524,17,1027.1,37.5,0
"2021-03-07 15:22:39+00",12.8,14.8,,34,-420,379,21,1027.14,37.3,0
"2021-03-07 15:27:39+00",10.4,14.4,,34.7,-154,446,21,1027.11,37.7,0
"2021-03-07 15:32:39+00",8.4,10.4,,34.4,-275,237,34,1027.13,37.7,0
"2021-03-07 15:37:39+00",13.9,14.9,,34.3,-476,393,16,1027.13,37.6,0
"2021-03-07 15:42:39+00",14.1,17.1,,34.7,-537,350,68,1027.13,37.7,0
"2021-03-07 15:47:39+00",12.5,14.5,,34.7,-512,204,69,1027.15,38,0
"2021-03-07 15:52:39+00",14.2,17.2,,34.9,-622,210,14,1027.07,38.4,0
"2021-03-07 15:57:39+00",14.2,17.2,,34.8,-586,246,39,1027.06,38.8,0
"2021-03-07 16:02:39+00",9.0,11.0,,35.1,-188,354,8,1027.22,39,0
"2021-03-07 16:07:39+00",8.9,10.9,,34.9,-370,165,28,1027.15,39.8,0
"2021-03-07 16:12:39+00",7.6,8.6,,35.2,-292,160,57,1027.09,40.6,0
"2021-03-07 16:17:39+00",7.5,8.5,,35.2,-308,106,-8,1027.06,41.6,0
"2021-03-07 16:22:39+00",12.5,14.5,,35.4,-477,315,13,1027.07,41.5,0
"2021-03-07 16:27:39+00",12.1,15.1,,36.1,-486,239,108,1026.94,41.1,0
"2021-03-07 16:32:39+00",10.4,12.4,,36.1,-373,244,30,1026.94,41.2,0
"2021-03-07 16:37:39+00",10.8,11.8,,36.2,-486,55,50,1026.91,41.4,0
"2021-03-07 16:42:39+00",11.1,14.1,,36,-447,213,-4,1026.93,42.1,0
"2021-03-07 16:47:39+00",10.9,12.9,,36.5,-442,181,43,1026.83,41.9,0
"2021-03-07 16:52:39+00",8.7,11.7,,36.4,-370,107,46,1026.8,41.5,0
"2021-03-07 16:57:39+00",10.0,11.0,,37,-365,262,38,1026.8,41.2,0
"2021-03-07 17:02:39+00",7.1,9.1,,36.8,-281,127,63,1026.71,41.3,0
"2021-03-07 17:07:39+00",12.0,13.0,,36.9,-440,314,10,1026.67,41.2,0
"2021-03-07 17:12:39+00",15.7,17.7,,36.9,-444,523,39,1026.58,40.9,0
"2021-03-07 17:17:39+00",11.5,14.5,,37.2,-414,315,47,1026.57,40.6,0
"2021-03-07 17:22:39+00",10.4,13.4,,37.2,-385,246,8,1026.6,40.6,0
"2021-03-07 17:27:39+00",9.3,11.3,,37.3,-348,198,6,1026.5,40.7,0
"2021-03-07 17:32:39+00",8.0,9.0,,37.1,-341,130,35,1026.4,40.9,0
"2021-03-07 17:37:39+00",6.6,9.6,,37.2,-233,182,12,1026.31,41.3,0
"2021-03-07 17:42:39+00",8.4,9.4,,37.4,-331,160,-4,1026.3,41.6,0
"2021-03-07 17:47:39+00",8.4,11.4,,37.6,-370,105,31,1026.11,42.2,0
"2021-03-07 17:52:39+00",10.4,12.4,,37.3,-437,-43,-10,1025.98,42.5,0
"2021-03-07 17:57:39+00",10.3,11.3,,37.5,-457,53,12,1025.89,43,0
"2021-03-07 18:02:39+00",9.2,11.2,,37.6,-406,4,20,1025.78,43.9,0
"2021-03-07 18:07:39+00",11.3,12.3,,38,-490,-86,28,1025.76,44.5,0
"2021-03-07 18:12:39+00",9.8,11.8,,38.2,-383,209,-6,1025.63,45,0
"2021-03-07 18:17:39+00",4.4,5.4,,38.2,-157,60,61,1025.63,45.5,0
"2021-03-07 18:22:39+00",12.6,14.6,,38.5,-553,74,9,1025.42,45.7,0
"2021-03-07 18:27:39+00",7.6,8.6,,38.3,-319,98,30,1025.48,45.9,0
"2021-03-07 18:32:39+00",5.7,6.7,,38.7,-210,127,12,1025.41,46.3,0
"2021-03-07 18:37:39+00",10.4,13.4,,38.5,-467,68,10,1025.29,46.2,0
"2021-03-07 18:42:39+00",11.2,15.2,,38.9,-455,181,31,1025.16,45.9,0
"2021-03-07 18:47:39+00",10.9,11.9,,38.9,-471,125,7,1025.29,45.3,0
"2021-03-07 18:52:39+00",13.6,15.6,,39.1,-606,126,32,1025.28,45.4,0
"2021-03-07 18:57:39+00",14.3,16.3,,39.3,-647,127,39,1025.36,45.4,0
"2021-03-07 19:02:39+00",13.1,15.1,,39.4,-581,-13,11,1025.28,45.4,0
"2021-03-07 19:07:39+00",13.2,15.2,,39.3,-588,81,15,1025.2,45.7,0
"2021-03-07 19:12:39+00",10.8,12.8,,39.7,-484,64,77,1025.28,46.1,0
"2021-03-07 19:17:39+00",12.5,14.5,,40,-544,-88,55,1025.24,46.4,0
"2021-03-07 19:22:39+00",11.5,13.5,,39.7,-502,29,36,1025.19,46.3,0
"2021-03-07 19:27:39+00",10.3,12.3,,40,-466,-22,37,1025.27,46.7,0
"2021-03-07 19:32:39+00",8.1,13.1,,37.5,-28,-279,67,1025.29,42.1,0
"2021-03-07 19:37:39+00",9.3,11.3,,37.4,-24,-384,34,1025.34,40.3,0
"2021-03-07 19:42:39+00",11.5,14.5,,37.4,-19,-489,-31,1025.29,39.4,0
"2021-03-07 19:47:39+00",15.2,17.2,,36.9,-27,-646,-34,1025.37,38.5,0
"2021-03-07 19:52:39+00",12.4,14.4,,36.9,13,-515,-26,1025.46,38.4,0
"2021-03-07 19:57:39+00",11.4,14.4,,37.2,-52,-488,-3,1025.46,38.5,0
"2021-03-07 20:02:39+00",10.6,14.6,,36.8,56,-430,23,1025.47,38.3,0
"2021-03-07 20:07:39+00",13.6,16.6,,35.9,186,-539,5,1025.36,37.5,0
"2021-03-07 20:12:39+00",14.4,16.4,,35.5,289,-554,-13,1025.48,37.2,0
"2021-03-07 20:17:39+00",13.3,14.3,,35.8,260,-499,15,1025.42,37.4,0
"2021-03-07 20:22:39+00",10.7,13.7,,35.8,161,-428,6,1025.49,37.3,0
"2021-03-07 20:27:39+00",13.4,14.4,,35.4,303,-498,-11,1025.39,37.1,0
"2021-03-07 20:32:39+00",10.5,12.5,,35.8,107,-440,9,1025.4,37.1,0
"2021-03-07 20:37:39+00",10.3,14.3,,36.1,77,-448,-9,1025.4,37.2,0
"2021-03-07 20:42:39+00",10.5,13.5,,36.4,8,-444,-20,1025.47,37.5,0
"2021-03-07 20:47:39+00",10.3,14.3,,36.8,58,-440,-6,1025.35,37.6,0
"2021-03-07 20:52:39+00",9.7,11.7,,36.6,67,-427,-15,1025.39,37.5,0
"2021-03-07 20:57:39+00",10.9,13.9,,36.6,95,-443,-2,1025.33,37.7,0
"2021-03-07 21:02:39+00",9.7,11.7,,36.7,118,-388,13,1025.38,37.6,0
"2021-03-07 21:07:39+00",8.3,10.3,,36.5,98,-331,-3,1025.43,37.5,0
"2021-03-07 21:12:39+00",8.9,10.9,,36.5,107,-355,-3,1025.46,37.5,0
"2021-03-07 21:17:39+00",8.9,10.9,,36.4,131,-359,13,1025.57,37.4,0
"2021-03-07 21:22:39+00",8.8,10.8,,36.4,93,-348,6,1025.55,37.3,0
"2021-03-07 21:27:39+00",9.7,10.7,,36.4,16,-421,-23,1025.59,37.1,0
"2021-03-07 21:32:39+00",9.1,11.1,,36.6,57,-397,-12,1025.53,37.3,0
"2021-03-07 21:37:39+00",8.8,9.8,,36.5,76,-367,-16,1025.62,37.1,0
"2021-03-07 21:42:39+00",10.2,11.2,,36.3,208,-388,-13,1025.58,37,0
"2021-03-07 21:47:39+00",9.0,11.0,,36.4,82,-362,-10,1025.62,37,0
"2021-03-07 21:52:39+00",7.6,9.6,,36.3,36,-303,-12,1025.65,36.9,0
"2021-03-07 21:57:39+00",6.3,8.3,,36.5,41,-259,-1,1025.65,37,0
"2021-03-07 22:02:39+00",6.6,7.6,,36.7,124,-244,11,1025.62,37.2,0
"2021-03-07 22:07:39+00",6.6,7.6,,36.7,25,-279,-32,1025.65,37.1,0
"2021-03-07 22:12:39+00",6.3,8.3,,36.7,65,-248,-9,1025.74,37.2,0
"2021-03-07 22:17:39+00",5.9,6.9,,36.7,123,-216,-10,1025.76,37.1,0
"2021-03-07 22:22:39+00",7.1,8.1,,36.6,179,-244,-15,1025.87,37.1,0
"2021-03-07 22:27:39+00",5.6,6.6,,36.6,144,-182,-4,1026.01,37.1,0
"2021-03-07 22:32:39+00",5.2,6.2,,36.5,147,-161,0,1026.03,36.8,0
"2021-03-07 22:37:39+00",5.5,6.5,,36.4,225,-85,6,1026.18,36.6,0
"2021-03-07 22:42:39+00",5.8,6.8,,36.2,225,-113,10,1026.29,36.3,0
"2021-03-07 22:47:39+00",5.5,6.5,,36.1,237,-60,10,1026.39,35.8,0
"2021-03-07 22:52:39+00",6.4,7.4,,36,264,-103,4,1026.5,35.4,0
"2021-03-07 22:57:39+00",8.6,8.6,,36,356,-150,9,1026.67,34.9,0
"2021-03-07 23:02:39+00",6.8,7.8,,35.7,288,-99,10,1026.7,34.6,0
"2021-03-07 23:07:39+00",6.4,7.4,,35.2,280,-71,12,1026.86,34.3,0
"2021-03-07 23:12:39+00",8.8,9.8,,35.3,361,-136,15,1026.86,34.1,0
"2021-03-07 23:17:39+00",7.1,8.1,,35.3,315,-53,10,1027.04,33.9,0
"2021-03-07 23:22:39+00",7.9,8.9,,35.2,342,-83,17,1027.05,33.9,0
"2021-03-07 23:27:39+00",7.4,8.4,,35.3,327,-63,17,1027.14,33.6,0
"2021-03-07 23:32:39+00",5.7,6.7,,35.3,246,-39,30,1027.29,33.4,0
"2021-03-07 23:37:39+00",5.3,6.3,,34.7,228,33,23,1027.33,33.1,0
"2021-03-07 23:42:39+00",6.6,6.6,,34.9,293,19,17,1027.53,32.6,0
"2021-03-07 23:47:39+00",6.0,7.0,,35.3,260,10,21,1027.58,32.2,0
"2021-03-07 23:52:39+00",5.6,6.6,,35.6,241,45,14,1027.61,32,0
"2021-03-07 23:57:39+00",6.0,7.0,,35.5,253,84,18,1027.64,31.7,0
